Location: Brabourne
(51.1333°N, 1.0000°E)
Time: 16:27:39
(UTC+00:00)

SeaSat 1 - Pass Details

Date: 29 October 2021
Orbit: 743 x 747 km, 108.0° (Epoch: 30 November)

Event Time Altitude Azimuth Distance (km) Brightness Sun altitude
Exits shadow 20:52:28 11° 347° (NNW) 2,193 5.3 -39.7°
Drops below altitude 10° 20:52:37 11° 346° (NNW) 2,242 5.3 -39.8°
Sets 20:55:14 0° 335° (NNW) 3,205 6.4 -40.1°
